[[{"header":{"parameterUnit":"m.s-1","parameterCategory":1,"la1":30.2991,"la2":30.254,"lo1":-89.0895,"lo2":-89.0444,"dy":0.0017,"dx":0.0017,"nx":28,"ny":28,"refTime":"2026-01-07T03:00:00:Z","depth":0,"parameterNumber":2,"parameterNumberName":"U-component_of_WINDS"},"data":[0,0,0,0,0,0,0,0,0,0,0,0,0,0,0,0,0,0,0,0,0,0,0,0,0,0,0,0,0,0,0,0,0,0,0,0,0,0,0,0,0,0,0,0,0,0,0,0,0,0,0,0,0,0,0,0,0,0,-1.8689,-1.869,0,-1.8722,-1.8723,-1.8723,-1.8706,-1.8705,-1.8704,-1.8703,-1.8739,-1.8741,-1.8743,0,0,0,0,0,0,0,0,0,0,0,0,0,-1.8615,-1.8616,-1.8689,-1.869,-1.869,-1.8722,-1.8723,-1.8723,-1.8706,-1.8705,-1.8704,-1.8703,-1.8739,-1.8741,-1.8743,0,0,0,0,0,0,0,0,0,0,0,0,0,-1.8647,-1.8616,-1.8689,-1.8686,-1.8686,-1.8722,-1.8723,-1.8723,-1.8706,-1.8705,-1.8704,-1.8702,-1.8738,-1.874,-1.8743,-1.8786,0,0,-1.8751,-1.8752,0,0,0,0,0,0,0,0,-1.8645,-1.865,-1.8686,-1.8686,-1.8686,-1.8709,-1.8709,-1.8744,-1.8707,-1.8699,-1.8703,-1.8702,-1.873,-1.8733,-1.8743,-1.8788,-1.8789,-1.8751,-1.8753,-1.8754,-1.8755,0,0,0,0,0,0,0,-1.8643,-1.8649,-1.8702,-1.8686,-1.8686,-1.8683,-1.8686,-1.8716,-1.8722,-1.8699,-1.8698,-1.8702,-1.873,-1.874,-1.8743,-1.879,-1.8751,-1.8754,-1.8755,-1.8756,-1.8872,-1.8874,0,0,0,0,0,0,-1.8641,-1.8647,-1.8701,-1.8703,-1.8662,-1.8686,-1.8689,-1.8703,-1.8721,-1.8723,-1.8703,-1.8701,-1.8736,-1.874,-1.8745,-1.8796,-1.8754,-1.8757,-1.8758,-1.8871,-1.8873,-1.8874,0,0,0,0,0,0,-1.8639,-1.8646,-1.87,-1.8675,-1.8681,-1.8688,-1.8704,-1.8704,-1.8714,-1.8724,-1.8725,-1.8712,-1.8735,-1.8741,-1.8776,-1.8797,-1.8758,-1.876,-1.8869,-1.8872,-1.8874,-1.8899,0,0,0,0,0,0,-1.8637,-1.8645,-1.8661,-1.8675,-1.8683,-1.873,-1.8705,-1.8706,-1.8718,-1.8716,-1.8733,-1.8734,-1.8735,-1.8772,-1.8778,-1.88,-1.8762,-1.8867,-1.887,-1.8873,-1.8896,-1.8902,-1.8906,0,0,0,0,0,-1.8635,-1.8667,-1.8662,-1.8669,-1.8702,-1.8731,-1.8736,-1.8735,-1.872,-1.8736,-1.8743,-1.8734,-1.8794,-1.8776,-1.8783,-1.8805,-1.8866,-1.8869,-1.8873,-1.8894,-1.89,-1.8906,0,0,0,0,0,0,-1.8656,-1.8669,-1.8663,-1.8701,-1.8715,-1.8728,-1.8748,-1.8742,-1.8761,-1.8758,-1.8757,-1.8761,-1.8797,-1.8805,-1.8785,-1.8848,-1.8828,-1.8833,-1.8841,-1.8848,-1.8853,-1.885,-1.8765,0,0,0,0,0,-1.8665,-1.8686,-1.8697,-1.873,-1.8737,-1.8742,-1.8754,-1.8752,-1.8767,-1.8773,-1.8782,-1.8798,-1.882,-1.8835,-1.8856,-1.8898,-1.8901,-1.8917,-1.8922,-1.8926,-1.893,-1.8953,-1.896,-1.8885,-1.8885,-1.8885,0,0,-1.8683,-1.8693,-1.8707,-1.8734,-1.8744,-1.8767,-1.8747,-1.8772,-1.8789,-1.8777,-1.881,-1.8818,-1.8835,-1.8874,-1.8891,-1.8881,-1.8952,-1.893,-1.8934,-1.8935,-1.8957,-1.8964,-1.8971,-1.8888,-1.8887,-1.8887,0,0,-1.8729,-1.8739,-1.8767,-1.8778,-1.8794,-1.8797,-1.8804,-1.8819,-1.8823,-1.8857,-1.8848,-1.887,-1.8908,-1.892,-1.8932,-1.8984,-1.8976,-1.8991,-1.9017,-1.904,-1.9046,-1.9051,-1.9069,-1.9076,-1.8995,-1.8995,-1.8995,0,-1.875,-1.8784,-1.8782,-1.8808,-1.882,-1.8811,-1.8839,-1.8851,-1.8874,-1.8883,-1.8871,-1.892,-1.8931,-1.8972,-1.8985,-1.8995,-1.9003,-1.8988,-1.9045,-1.905,-1.9055,-1.9072,-1.9079,-1.8997,-1.8997,-1.8997,-1.8997,0,-1.8809,-1.8833,-1.8854,-1.8875,-1.889,-1.8917,-1.8921,-1.8936,-1.8934,-1.8939,-1.8973,-1.8986,-1.901,-1.902,-1.9018,-1.9062,-1.9055,-1.9045,-1.9024,-1.9064,-1.908,-1.9086,-1.8999,-1.8999,-1.8998,-1.8998,0,0,-1.8867,-1.8888,-1.8896,-1.8905,-1.8923,-1.8942,-1.897,-1.8992,-1.9005,-1.9022,-1.9045,-1.9079,-1.9069,-1.9082,-1.9082,-1.9102,-1.9142,-1.9089,-1.9089,-1.9097,-1.9191,-1.9198,-1.9205,-1.9138,-1.9139,-1.914,-1.9189,0,-1.8914,-1.896,-1.896,-1.9004,-1.9026,-1.9018,-1.9042,-1.9056,-1.9062,-1.9082,-1.9089,-1.9112,-1.9098,-1.9106,-1.9125,-1.9133,-1.916,-1.913,-1.9159,-1.916,-1.9154,-1.9214,-1.9221,-1.9266,-1.9195,-1.9197,-1.9197,0,-1.8973,-1.8991,-1.9036,-1.9051,-1.906,-1.9082,-1.9103,-1.9122,-1.9139,-1.9142,-1.9157,-1.9154,-1.9183,-1.9162,-1.9203,-1.9182,-1.9194,-1.92,-1.9202,-1.9204,-1.918,-1.9216,-1.9281,-1.9287,-1.9207,-1.9207,-1.9206,0,-1.901,-1.9046,-1.9077,-1.9086,-1.9105,-1.912,-1.9129,-1.9144,-1.9157,-1.9176,-1.9185,-1.9208,-1.922,-1.9238,-1.9242,-1.9227,-1.9282,-1.9262,-1.9286,-1.9285,-1.9296,-1.9295,-1.9363,-1.9307,-1.9307,-1.9306,-1.9306,0,-1.9061,-1.9089,-1.9094,-1.9113,-1.9145,-1.9146,-1.9177,-1.9185,-1.9198,-1.922,-1.9215,-1.9236,-1.924,-1.9261,-1.9265,-1.9298,-1.9304,-1.9307,-1.9307,-1.9306,-1.9306,-1.9314,-1.931,-1.9308,-1.9308,-1.9307,-1.9307,0,-1.9106,-1.9111,-1.9145,-1.916,-1.9165,-1.9187,-1.92,-1.9219,-1.9225,-1.9252,-1.9259,-1.9268,-1.9293,-1.9299,-1.933,-1.9332,-1.9371,-1.9369,-1.9365,-1.9364,-1.9387,-1.9384,-1.9461,-1.9471,-1.9409,-1.9409,-1.941,0,-1.9138,-1.9159,-1.9176,-1.919,-1.9199,-1.9221,-1.9235,-1.9238,-1.9252,-1.9273,-1.929,-1.9315,-1.9334,-1.9376,-1.9386,-1.9409,-1.9407,-1.9432,-1.941,-1.9409,-1.9406,-1.9404,-1.9406,-1.9436,-1.9437,-1.9437,-1.9438,0,-1.9193,-1.9194,-1.9214,-1.9235,-1.9251,-1.9268,-1.9284,-1.9296,-1.9301,-1.9318,-1.9344,-1.9359,-1.939,-1.9415,-1.9439,-1.9449,-1.9444,-1.9445,-1.9451,-1.945,-1.9446,-1.9448,-1.9375,-1.9442,-1.9442,-1.9442,-1.9441,-1.9441,-1.9231,-1.925,-1.9265,-1.9287,-1.93,-1.9315,-1.9333,-1.9342,-1.9362,-1.9387,-1.9388,-1.9416,-1.9433,-1.9464,-1.9476,-1.9499,-1.9491,-1.95,-1.9503,-1.9505,-1.9506,-1.9444,-1.9503,-1.9503,-1.9503,-1.9503,-1.9503,0,-1.9285,-1.9295,-1.9315,-1.9338,-1.9356,-1.935,-1.9368,-1.9383,-1.9407,-1.9423,-1.9443,-1.9473,-1.9497,-1.9509,-1.9534,-1.9549,-1.9548,-1.9556,-1.9554,-1.9556,-1.9512,-1.9503,-1.9556,-1.9556,-1.9556,-1.9556,-1.9556,-1.9556,-1.9315,-1.9346,-1.9349,-1.9387,-1.9396,-1.9422,-1.9433,-1.9448,-1.946,-1.9493,-1.9513,-1.9521,-1.9536,-1.9562,-1.9584,-1.9587,-1.9596,-1.9604,-1.9607,-1.9565,-1.9559,-1.9554,-1.9546,-1.9607,-1.9607,-1.9649,-1.9649,-1.9649]},{"header":{"parameterUnit":"m.s-1","parameterCategory":1,"la1":30.2991,"la2":30.254,"lo1":-89.0895,"lo2":-89.0444,"dy":0.0017,"dx":0.0017,"nx":28,"ny":28,"refTime":"2026-01-07T03:00:00:Z","depth":0,"parameterNumber":3,"parameterNumberName":"V-component_of_WINDS"},"data":[0,0,0,0,0,0,0,0,0,0,0,0,0,0,0,0,0,0,0,0,0,0,0,0,0,0,0,0,0,0,0,0,0,0,0,0,0,0,0,0,0,0,0,0,0,0,0,0,0,0,0,0,0,0,0,0,0,0,1.8402,1.8402,0,1.8373,1.8372,1.8372,1.835,1.835,1.835,1.835,1.8319,1.8319,1.8318,0,0,0,0,0,0,0,0,0,0,0,0,0,1.8439,1.8439,1.8402,1.8402,1.8401,1.8373,1.8372,1.8372,1.835,1.835,1.835,1.8349,1.832,1.8319,1.8318,0,0,0,0,0,0,0,0,0,0,0,0,0,1.8418,1.8438,1.8402,1.8387,1.8385,1.8373,1.8372,1.8372,1.835,1.835,1.835,1.8349,1.832,1.8319,1.8318,1.8318,0,0,1.8315,1.8315,0,0,0,0,0,0,0,0,1.8419,1.8416,1.8389,1.8388,1.8386,1.8365,1.8375,1.8354,1.835,1.8363,1.835,1.8349,1.8335,1.8333,1.8328,1.8317,1.8316,1.8315,1.8315,1.8314,1.8314,0,0,0,0,0,0,0,1.8421,1.8418,1.839,1.8389,1.8387,1.8382,1.8378,1.8371,1.8351,1.8362,1.8361,1.8358,1.8334,1.8329,1.8327,1.8315,1.8315,1.8314,1.8314,1.8313,1.8305,1.8305,0,0,0,0,0,0,1.8424,1.8419,1.8391,1.8389,1.8402,1.8381,1.8378,1.8372,1.8351,1.8348,1.8358,1.8357,1.833,1.8328,1.8326,1.8326,1.8314,1.8313,1.8313,1.8305,1.8305,1.8306,0,0,0,0,0,0,1.8425,1.8422,1.8392,1.8404,1.84,1.8381,1.8375,1.8371,1.8366,1.8348,1.8344,1.8356,1.833,1.8327,1.8321,1.8324,1.8313,1.8312,1.8304,1.8305,1.8305,1.8326,0,0,0,0,0,0,1.8426,1.8423,1.8422,1.8404,1.8399,1.8388,1.8375,1.8371,1.8365,1.8363,1.8345,1.8342,1.833,1.8322,1.832,1.8323,1.8311,1.8304,1.8305,1.8305,1.8324,1.8327,1.8329,0,0,0,0,0,1.8428,1.8429,1.8422,1.8419,1.8398,1.8388,1.8385,1.8371,1.8365,1.8365,1.8353,1.8343,1.8325,1.8322,1.8319,1.8322,1.8304,1.8304,1.8305,1.8324,1.8326,1.8329,0,0,0,0,0,0,1.8447,1.8426,1.8419,1.8413,1.8403,1.8384,1.8383,1.8374,1.8365,1.8363,1.8346,1.8342,1.8338,1.8329,1.8327,1.8322,1.8313,1.8313,1.8328,1.833,1.8332,1.8335,1.8311,0,0,0,0,0,1.8451,1.8444,1.8426,1.8423,1.8418,1.8402,1.8397,1.8387,1.8375,1.837,1.8358,1.8347,1.8339,1.8334,1.8326,1.8323,1.832,1.8324,1.8326,1.8328,1.8328,1.8328,1.833,1.8308,1.8308,1.8308,0,0,1.8458,1.8446,1.8442,1.8427,1.8417,1.8411,1.8398,1.8392,1.8387,1.8369,1.8363,1.8354,1.8341,1.8337,1.8334,1.8329,1.8334,1.8329,1.833,1.833,1.8329,1.8331,1.8333,1.8308,1.8308,1.8308,0,0,1.8469,1.8458,1.8455,1.8447,1.8433,1.8422,1.8422,1.8405,1.8399,1.8392,1.8379,1.8374,1.836,1.8351,1.8345,1.8355,1.8345,1.8352,1.8363,1.8363,1.8365,1.8366,1.837,1.8372,1.8353,1.8353,1.8353,0,1.8479,1.847,1.8455,1.845,1.8444,1.8428,1.8426,1.8418,1.8402,1.8399,1.8393,1.8377,1.8367,1.8361,1.8364,1.8359,1.8359,1.8354,1.8366,1.8367,1.8368,1.8372,1.8374,1.8354,1.8354,1.8354,1.8354,0,1.8484,1.8478,1.8477,1.8463,1.8457,1.8454,1.8439,1.8435,1.8426,1.8416,1.8411,1.8398,1.8387,1.8385,1.8376,1.8379,1.8377,1.8369,1.8359,1.8371,1.8375,1.8376,1.8355,1.8355,1.8355,1.8354,0,0,1.8505,1.8484,1.8484,1.8478,1.8463,1.8458,1.8454,1.8444,1.8441,1.8431,1.8428,1.8418,1.8411,1.8404,1.8394,1.8394,1.8404,1.8386,1.8386,1.8391,1.8408,1.8415,1.8417,1.8397,1.8398,1.8398,1.8409,0,1.8514,1.8506,1.8494,1.849,1.8485,1.8471,1.8468,1.8458,1.8449,1.8444,1.8434,1.8427,1.8418,1.8414,1.8413,1.8403,1.8407,1.8402,1.8395,1.8395,1.8399,1.8418,1.8425,1.8436,1.8411,1.8411,1.8411,0,1.8522,1.8514,1.851,1.8497,1.8494,1.8492,1.8482,1.8477,1.8467,1.846,1.8454,1.8443,1.844,1.8431,1.8426,1.8423,1.8419,1.8414,1.8414,1.8413,1.8404,1.8418,1.8439,1.8441,1.8413,1.8413,1.8413,0,1.8539,1.8527,1.8523,1.8519,1.8503,1.8501,1.8495,1.8484,1.8479,1.8472,1.8469,1.846,1.8456,1.845,1.8438,1.8433,1.8435,1.8425,1.843,1.8431,1.8431,1.8431,1.8452,1.8428,1.8428,1.8428,1.8428,0,1.855,1.8548,1.8531,1.8529,1.8527,1.8514,1.8512,1.8504,1.8495,1.8492,1.8479,1.8476,1.846,1.8456,1.8447,1.8445,1.8443,1.8438,1.8436,1.8439,1.844,1.8437,1.8436,1.8429,1.8429,1.8428,1.8428,0,1.8568,1.8556,1.8552,1.8537,1.8534,1.8533,1.8521,1.8519,1.8511,1.8507,1.8505,1.8491,1.8485,1.8473,1.8464,1.8457,1.8458,1.8453,1.8462,1.846,1.8467,1.8467,1.8487,1.8489,1.8463,1.8464,1.8464,0,1.8576,1.8574,1.8561,1.8558,1.8552,1.8547,1.8543,1.853,1.8526,1.8515,1.8515,1.8508,1.8502,1.8494,1.8483,1.8477,1.8472,1.848,1.8471,1.8475,1.8473,1.8474,1.8474,1.8482,1.8482,1.8482,1.8483,0,1.8591,1.8586,1.858,1.8573,1.8569,1.8563,1.8555,1.8554,1.8539,1.8536,1.853,1.8526,1.8517,1.8511,1.8503,1.8497,1.8488,1.8486,1.8487,1.8491,1.8496,1.8494,1.8468,1.8485,1.8485,1.8485,1.8484,1.8484,1.8605,1.8604,1.8595,1.8589,1.8583,1.8577,1.8575,1.8566,1.8562,1.8554,1.8547,1.8542,1.8533,1.8522,1.8516,1.8513,1.8508,1.8509,1.851,1.851,1.8513,1.8496,1.8511,1.8511,1.8511,1.8511,1.8511,0,1.8621,1.8614,1.861,1.8601,1.8597,1.8589,1.8582,1.8579,1.8576,1.8568,1.8563,1.8558,1.8553,1.8542,1.8536,1.8536,1.8531,1.8535,1.8535,1.8534,1.8517,1.8517,1.8538,1.8538,1.8538,1.8538,1.8538,1.8538,1.8628,1.8627,1.8621,1.8616,1.861,1.8606,1.8602,1.8597,1.8592,1.8586,1.8582,1.8576,1.8567,1.8561,1.8556,1.8553,1.8552,1.8557,1.8553,1.8537,1.8535,1.8532,1.8532,1.8557,1.8557,1.857,1.857,1.857]}]]